Starlink 5998

operational
NORAD ID: 56468 Int'l Des: 2023-064 Owner: SPXS Country: US Constellation: starlink
LEOCIRCULAR

Über Starlink 5998

Beschreibung wird geladen...

Live-Position

3D-Globus wird geladen...

Nächste Überflüge

Höhenverlauf

Altitude vs Time

uPlot chart will show altitude changes over time

Zweizeiliger Elementsatz

1 56468U 23064W 25303.52818435 -.00000271 00000-0 -14880-4 0 9990
2 56468 69.9993 112.4580 0003004 265.8473 94.2342 14.98332211135758
Epoch: 30. Okt. 2025 • Age: 17 hours

Aktueller Status

Höhe 590.0 km
Geschwindigkeit 7.57 km/s
Subsatellitenpunkt -52.46°S, 167.34°W
Startdatum 10. Mai 2023
Alter 2.4 years
Typ internet

Technische Details

Klassifizierung Payload
Masse 305.00 kg
Trockenmasse 290.00 kg
Gesamtmasse 305.00 kg
Länge 0.20 m
Durchmesser 2.80 m
Spannweite 9.00 m
Form Box + pan
Hersteller SPXS
Bus-Typ Starlink
Phasenstatus In Orbit
Besitzer/Staat SPXS/US

Große Konstellationen

Loading constellations...